Tracking 35237 objects as of 6-Sep-2026
HD Live streaming from Space Station
objects crossing your sky now

DELTA 1 R/B(1)


DELTA 1 R/B(1) is no longer on orbit


NORAD ID: 11116
Int'l Code: 1978-106B
Launch date: November 19, 1978
Source: United States (US)
Launch site: AIR FORCE EASTERN TEST RANGE (AFETR)
Decay date: 1978-12-12

Note: This is a ROCKET BODY
Your satellite tracking list
Your tracking list is empty




NASA's NSSDC Master Catalog

Two Line Element Set (TLE):
1 11116U 78106  B 78338.76418185  .02191290 +03996-3 +00333-4 0  9998
2 11116 028.2400 147.0045 0256784 337.9171 034.1637 15.77713966002448
Source of the keplerian elements: AFSPC